QPF
0.00 0.00 0.00 0.00 0.00 0.00 0.00 0.00 0.00 0.00 0.00 0.00 0.00 0.00 0.00 0.00 0.00 0.00 0.00 0.00 0.00 0.00 0.00 0.00 0.00 0.00 0.00 0.00 0.00 0.00 0.00 0.00 0.00 0.00 0.00 0.00 0.00 0.00 0.00 0.00 0.00 0.00 0.00 0.00 0.00 0.00 0.00 0.00 0.00 0.00 0.00 0.00 0.00 0.00
0.00 0.00 0.00 0.00 0.00 0.00 0.00 0.00 0.00 0.00 0.00 0.00 0.00 0.00 0.00 0.00 0.00 0.00 0.00 0.00 0.00 0.00 0.00 0.00 0.00 0.00 0.00 0.00 0.00 0.00 0.00 0.00 0.00 0.00 0.00 0.00 0.00 0.00 0.00 0.00 0.00 0.00 0.00 0.00 0.00 0.00 0.00 0.00 0.00 0.00 0.00 0.00 0.00 0.00
0.00 0.00 0.00 0.00 0.00 0.00 0.00 0.00 0.00 0.00 0.00 0.00 0.00 0.00 0.00 0.00 0.00 0.00 0.00 0.00 0.00 0.00 0.00 0.00 0.00 0.00 0.00 0.00 0.00 0.00 0.00 0.00 0.00 0.00 0.00 0.00 0.00 0.00 0.00 0.00 0.00 0.00 0.00 0.00 0.00 0.00 0.00 0.00 0.00 0.00 0.00 0.00 0.00 0.00
0.00 0.00 0.00 0.00 0.00 0.00 0.00 0.00 0.00 0.01 0.01 0.01 0.01 0.00 0.00 0.00 0.00 0.00 0.00 0.00 0.00 0.00 0.00 0.00 0.00 0.00 0.00 0.00 0.00 0.00 0.00 0.00 0.00 0.00 0.00 0.00 0.00 0.00 0.00 0.00 0.00 0.00 0.00 0.00 0.00 0.00 0.00 0.00 0.00 0.00 0.00 0.00 0.00 0.00
0.00 0.00 0.00 0.00 0.00 0.00 0.00 0.00 0.00 0.00 0.00 0.00 0.00 0.00 0.00 0.00 0.00 0.00 0.00 0.00 0.00 0.00 0.00 0.00 0.00 0.00 0.00 0.00 0.00 0.00 0.00 0.00 0.00 0.00 0.00 0.00 0.00 0.00 0.00 0.00 0.00 0.00 0.00 0.00 0.00 0.00 0.00 0.00 0.00 0.00 0.00 0.00 0.00 0.00
0.00 0.00 0.00 0.00 0.00 0.00 0.00 0.00 0.00 0.00 0.00 0.00 0.00 0.00 0.00 0.00 0.00 0.00 0.00 0.00 0.00 0.00 0.00 0.00 0.00 0.00 0.00 0.00 0.00 0.00 0.00 0.00 0.00 0.00 0.00 0.00 0.00 0.00 0.00 0.00 0.00 0.00 0.00 0.00 0.00 0.00 0.00 0.00 0.00 0.00 0.00 0.00 0.00 0.00
0.00 0.00 0.00 0.00 0.00 0.00 0.00 0.00 0.00 0.00 0.00 0.00 0.00 0.00 0.00 0.00 0.00 0.00 0.00 0.00 0.00 0.00 0.00 0.00 0.00 0.00 0.00 0.00 0.00 0.00 0.00 0.00 0.00 0.00 0.00 0.00 0.00 0.00 0.00 0.00 0.00 0.00 0.00 0.00 0.00 0.00 0.00 0.00 0.00 0.00 0.00 0.00 0.00 0.00
0.00 0.00 0.00 0.00 0.00 0.00 0.01 0.00 0.00 0.00 0.00 0.00 0.00 0.00 0.00 0.00 0.00 0.00 0.00 0.00 0.00 0.00 0.00 0.00 0.00 0.00 0.00 0.00 0.00 0.00 0.00 0.00 0.00 0.00 0.00 0.00 0.00 0.00 0.00 0.00 0.00 0.00 0.00 0.00 0.00 0.00 0.00 0.00 0.00 0.00 0.00 0.00 0.00 0.00
0.01 0.00 0.00 0.00 0.00 0.00 0.01 0.00 0.00 0.00 0.00 0.00 0.00 0.00 0.00 0.00 0.00 0.00 0.00 0.00 0.00 0.00 0.00 0.00 0.00 0.00 0.00 0.00 0.00 0.00 0.00 0.00 0.00 0.00 0.00 0.00 0.00 0.00 0.00 0.00 0.00 0.00 0.00 0.00 0.00 0.00 0.00 0.00 0.00 0.00 0.00 0.00 0.00 0.00
0.02 0.01 0.01 0.00 0.00 0.00 0.00 0.00 0.00 0.00 0.00 0.00 0.00 0.00 0.00 0.00 0.00 0.00 0.00 0.00 0.00 0.00 0.00 0.00 0.00 0.00 0.00 0.00 0.00 0.00 0.00 0.00 0.00 0.00 0.00 0.00 0.00 0.00 0.00 0.00 0.00 0.00 0.00 0.00 0.00 0.00 0.00 0.00 0.00 0.00 0.00 0.00 0.00 0.00
0.02 0.02 0.02 0.01 0.00 0.00 0.00 0.00 0.00 0.00 0.01 0.00 0.00 0.00 0.00 0.00 0.00 0.00 0.00 0.00 0.00 0.01 0.00 0.00 0.00 0.00 0.00 0.00 0.00 0.00 0.00 0.00 0.00 0.00 0.00 0.00 0.00 0.00 0.00 0.00 0.00 0.00 0.00 0.00 0.00 0.00 0.00 0.00 0.00 0.00 0.00 0.00 0.00 0.00
0.01 0.01 0.01 0.00 0.00 0.00 0.00 0.00 0.00 0.01 0.01 0.00 0.00 0.00 0.00 0.01 0.02 0.01 0.00 0.00 0.00 0.00 0.01 0.00 0.00 0.00 0.00 0.00 0.00 0.00 0.00 0.00 0.00 0.00 0.00 0.00 0.00 0.00 0.00 0.00 0.00 0.00 0.00 0.00 0.00 0.00 0.00 0.00 0.00 0.00 0.00 0.00 0.00 0.00
0.02 0.01 0.01 0.01 0.01 0.02 0.01 0.00 0.00 0.00 0.00 0.00 0.01 0.02 0.01 0.02 0.02 0.02 0.01 0.00 0.00 0.00 0.00 0.00 0.00 0.00 0.00 0.00 0.00 0.00 0.00 0.00 0.00 0.00 0.00 0.00 0.00 0.00 0.00 0.00 0.00 0.00 0.00 0.00 0.00 0.00 0.00 0.00 0.00 0.00 0.00 0.00 0.00 0.00
0.02 0.02 0.02 0.01 0.01 0.02 0.01 0.01 0.01 0.01 0.00 0.00 0.03 0.05 0.01 0.01 0.00 0.00 0.00 0.00 0.00 0.00 0.00 0.00 0.00 0.00 0.00 0.00 0.00 0.00 0.00 0.00 0.00 0.00 0.00 0.00 0.00 0.00 0.00 0.00 0.00 0.00 0.00 0.00 0.00 0.00 0.00 0.00 0.00 0.00 0.00 0.00 0.00 0.00
0.02 0.02 0.01 0.01 0.00 0.00 0.00 0.01 0.01 0.01 0.00 0.00 0.02 0.02 0.01 0.00 0.00 0.00 0.00 0.00 0.00 0.00 0.01 0.01 0.01 0.00 0.00 0.01 0.01 0.01 0.00 0.00 0.00 0.00 0.00 0.00 0.00 0.00 0.00 0.00 0.00 0.00 0.00 0.00 0.00 0.00 0.00 0.00 0.00 0.00 0.00 0.00 0.00 0.00
0.02 0.02 0.01 0.00 0.00 0.01 0.00 0.01 0.03 0.00 0.00 0.00 0.01 0.02 0.01 0.00 0.00 0.00 0.00 0.00 0.00 0.00 0.04 0.03 0.01 0.00 0.01 0.02 0.03 0.02 0.02 0.00 0.00 0.00 0.00 0.00 0.00 0.00 0.00 0.00 0.00 0.00 0.00 0.00 0.00 0.00 0.00 0.00 0.00 0.00 0.00 0.00 0.00 0.00
0.03 0.01 0.00 0.01 0.01 0.01 0.01 0.02 0.03 0.01 0.01 0.00 0.01 0.00 0.01 0.02 0.01 0.00 0.00 0.00 0.00 0.01 0.01 0.02 0.01 0.00 0.00 0.00 0.01 0.00 0.00 0.00 0.00 0.00 0.00 0.00 0.00 0.00 0.00 0.00 0.00 0.00 0.00 0.00 0.00 0.00 0.00 0.00 0.00 0.00 0.00 0.00 0.00 0.00
0.00 0.00 0.01 0.01 0.01 0.01 0.02 0.02 0.02 0.02 0.00 0.00 0.00 0.00 0.00 0.01 0.02 0.00 0.00 0.00 0.04 0.07 0.04 0.02 0.02 0.01 0.01 0.00 0.01 0.00 0.00 0.00 0.00 0.00 0.00 0.00 0.00 0.00 0.00 0.00 0.00 0.00 0.00 0.00 0.00 0.00 0.00 0.00 0.00 0.00 0.00 0.00 0.00 0.00
0.00 0.00 0.02 0.01 0.00 0.00 0.00 0.01 0.01 0.00 0.00 0.00 0.00 0.00 0.00 0.00 0.01 0.00 0.00 0.00 0.01 0.04 0.06 0.02 0.01 0.01 0.00 0.00 0.01 0.01 0.00 0.00 0.00 0.00 0.00 0.00 0.00 0.00 0.00 0.00 0.00 0.00 0.00 0.00 0.00 0.00 0.00 0.00 0.00 0.00 0.00 0.00 0.00 0.00
0.00 0.02 0.02 0.00 0.01 0.00 0.00 0.00 0.00 0.00 0.00 0.00 0.00 0.00 0.00 0.00 0.00 0.00 0.00 0.00 0.00 0.00 0.00 0.00 0.00 0.00 0.00 0.00 0.00 0.00 0.00 0.00 0.00 0.00 0.00 0.00 0.00 0.00 0.00 0.00 0.00 0.00 0.00 0.00 0.00 0.00 0.00 0.00 0.00 0.00 0.00 0.00 0.00 0.00
0.00 0.04 0.02 0.01 0.00 0.00 0.00 0.00 0.00 0.00 0.00 0.00 0.00 0.00 0.00 0.00 0.00 0.00 0.00 0.00 0.00 0.00 0.00 0.00 0.00 0.00 0.00 0.00 0.00 0.00 0.00 0.00 0.00 0.00 0.00 0.00 0.00 0.00 0.00 0.00 0.00 0.00 0.00 0.00 0.00 0.00 0.00 0.00 0.00 0.00 0.00 0.00 0.00 0.00
0.01 0.02 0.01 0.01 0.00 0.00 0.00 0.00 0.00 0.00 0.00 0.00 0.00 0.00 0.00 0.00 0.00 0.00 0.00 0.00 0.00 0.00 0.00 0.00 0.00 0.00 0.00 0.00 0.00 0.00 0.00 0.00 0.00 0.00 0.00 0.00 0.00 0.00 0.00 0.00 0.00 0.00 0.00 0.00 0.00 0.00 0.00 0.00 0.00 0.00 0.00 0.00 0.00 0.01
0.00 0.00 0.00 0.00 0.00 0.00 0.00 0.00 0.00 0.00 0.00 0.00 0.00 0.00 0.00 0.00 0.00 0.00 0.00 0.00 0.00 0.00 0.00 0.00 0.00 0.00 0.00 0.00 0.00 0.00 0.00 0.00 0.00 0.00 0.00 0.00 0.00 0.00 0.00 0.00 0.00 0.00 0.00 0.00 0.00 0.00 0.00 0.00 0.00 0.00 0.00 0.00 0.00 0.00
0.00 0.00 0.00 0.00 0.00 0.00 0.00 0.00 0.01 0.01 0.00 0.00 0.00 0.00 0.00 0.00 0.00 0.00 0.00 0.00 0.00 0.00 0.00 0.00 0.00 0.00 0.00 0.00 0.00 0.00 0.00 0.00 0.00 0.00 0.00 0.00 0.00 0.00 0.00 0.00 0.00 0.00 0.00 0.00 0.00 0.00 0.00 0.00 0.00 0.00 0.00 0.00 0.00 0.00
0.00 0.00 0.00 0.00 0.00 0.00 0.00 0.00 0.00 0.00 0.00 0.00 0.00 0.00 0.00 0.00 0.00 0.00 0.00 0.00 0.00 0.00 0.00 0.00 0.00 0.00 0.00 0.00 0.00 0.00 0.00 0.00 0.00 0.00 0.00 0.00 0.00 0.00 0.00 0.00 0.00 0.00 0.00 0.00 0.00 0.00 0.00 0.00 0.00 0.00 0.00 0.00 0.00 0.00
0.00 0.00 0.00 0.00 0.00 0.00 0.00 0.01 0.00 0.00 0.00 0.00 0.00 0.00 0.00 0.00 0.00 0.00 0.00 0.00 0.00 0.00 0.00 0.00 0.00 0.00 0.00 0.00 0.00 0.00 0.00 0.00 0.00 0.00 0.00 0.00 0.00 0.00 0.00 0.00 0.00 0.00 0.00 0.00 0.00 0.00 0.00 0.00 0.00 0.00 0.00 0.00 0.00 0.00
0.00 0.00 0.00 0.00 0.00 0.00 0.00 0.00 0.00 0.00 0.00 0.00 0.00 0.00 0.00 0.00 0.00 0.00 0.01 0.00 0.00 0.00 0.00 0.00 0.00 0.00 0.00 0.00 0.00 0.00 0.00 0.00 0.00 0.00 0.00 0.00 0.00 0.00 0.00 0.00 0.00 0.00 0.00 0.00 0.00 0.00 0.00 0.00 0.00 0.00 0.00 0.00 0.00 0.00
0.00 0.00 0.00 0.00 0.00 0.00 0.00 0.00 0.00 0.00 0.01 0.00 0.01 0.01 0.01 0.01 0.02 0.02 0.01 0.00 0.00 0.00 0.00 0.00 0.00 0.00 0.00 0.00 0.00 0.00 0.00 0.00 0.00 0.00 0.00 0.00 0.00 0.00 0.00 0.00 0.00 0.00 0.00 0.00 0.00 0.00 0.01 0.00 0.00 0.00 0.00 0.00 0.00 0.00
0.00 0.00 0.00 0.00 0.00 0.00 0.00 0.00 0.00 0.01 0.02 0.02 0.01 0.01 0.01 0.01 0.01 0.00 0.00 0.00 0.00 0.00 0.00 0.00 0.00 0.00 0.00 0.00 0.00 0.00 0.00 0.00 0.00 0.00 0.00 0.00 0.00 0.00 0.00 0.00 0.00 0.00 0.00 0.00 0.00 0.00 0.01 0.00 0.00 0.00 0.00 0.00 0.00 0.00
0.00 0.00 0.00 0.00 0.00 0.00 0.00 0.00 0.00 0.00 0.00 0.01 0.00 0.00 0.00 0.00 0.00 0.00 0.00 0.00 0.00 0.00 0.00 0.00 0.00 0.00 0.00 0.00 0.00 0.00 0.00 0.00 0.00 0.00 0.00 0.00 0.00 0.00 0.00 0.00 0.00 0.00 0.00 0.00 0.00 0.01 0.01 0.00 0.00 0.00 0.00 0.00 0.00 0.00
0.00 0.00 0.00 0.00 0.00 0.00 0.00 0.00 0.00 0.00 0.00 0.00 0.00 0.00 0.00 0.00 0.00 0.00 0.00 0.00 0.00 0.00 0.00 0.00 0.00 0.00 0.00 0.00 0.00 0.01 0.01 0.00 0.00 0.00 0.00 0.00 0.00 0.00 0.00 0.00 0.00 0.00 0.00 0.00 0.00 0.10 0.10 0.04 0.01 0.00 0.00 0.00 0.00 0.00
0.00 0.00 0.00 0.00 0.00 0.00 0.00 0.00 0.00 0.00 0.00 0.00 0.00 0.00 0.00 0.00 0.00 0.00 0.00 0.00 0.00 0.00 0.00 0.00 0.00 0.00 0.00 0.00 0.00 0.00 0.00 0.00 0.00 0.00 0.00 0.00 0.00 0.00 0.00 0.00 0.00 0.00 0.02 0.08 0.03 0.01 0.00 0.00 0.00 0.00 0.00 0.00 0.00 0.00
0.00 0.00 0.00 0.00 0.00 0.00 0.00 0.00 0.00 0.00 0.00 0.01 0.00 0.00 0.00 0.00 0.01 0.01 0.00 0.00 0.00 0.00 0.00 0.00 0.00 0.00 0.00 0.00 0.00 0.00 0.00 0.00 0.00 0.00 0.00 0.00 0.00 0.01 0.00 0.00 0.00 0.00 0.01 0.09 0.07 0.01 0.00 0.01 0.02 0.02 0.01 0.00 0.00 0.00
MSLP
1022.83 1022.56 1022.34 1022.12 1021.87 1021.62 1021.30 1020.95 1020.70 1020.34 1019.92 1019.47 1019.20 1018.94 1018.66 1018.45 1018.31 1018.12 1017.17 1016.82 1016.33 1015.38 1013.79 1013.26 1012.70 1012.18 1011.99 1011.70 1011.33 1011.31 1011.19 1010.70 1010.32 1010.10 1010.15 1010.11 1009.92 1010.04 1009.84 1009.80 1009.51 1009.13 1009.03 1009.09 1009.19 1008.58 1008.27 1008.13 1007.82 1007.78 1008.03 1007.90 1007.82 1008.02
1022.45 1022.27 1022.01 1021.83 1021.66 1021.37 1021.07 1020.72 1020.38 1020.11 1019.68 1019.16 1018.80 1018.68 1018.45 1018.27 1018.24 1018.18 1017.58 1016.87 1016.78 1016.06 1014.21 1013.55 1012.69 1012.10 1011.77 1011.52 1011.71 1011.62 1011.53 1011.13 1010.89 1010.73 1010.92 1010.76 1010.47 1010.47 1010.36 1009.82 1009.98 1009.65 1009.42 1008.95 1009.02 1008.59 1008.63 1008.58 1008.38 1008.24 1008.20 1007.96 1008.12 1008.22
1022.07 1021.92 1021.75 1021.44 1021.34 1021.15 1020.82 1020.47 1020.13 1019.71 1019.27 1018.76 1018.31 1018.22 1018.21 1018.14 1018.16 1018.22 1017.87 1017.46 1016.86 1016.03 1014.13 1013.19 1011.73 1011.25 1011.51 1011.45 1011.36 1011.37 1011.41 1011.25 1011.24 1011.39 1011.12 1011.18 1010.96 1010.86 1010.34 1010.11 1009.90 1009.75 1009.74 1009.18 1009.23 1008.99 1008.72 1008.41 1008.39 1008.27 1008.20 1008.09 1008.23 1008.36
1021.67 1021.46 1021.31 1021.24 1021.05 1020.87 1020.56 1020.23 1019.88 1019.50 1019.09 1018.71 1018.12 1018.06 1018.16 1018.19 1018.13 1018.14 1017.92 1017.55 1017.21 1016.38 1014.82 1012.10 1011.53 1011.16 1010.84 1010.96 1011.01 1011.04 1011.09 1011.42 1011.30 1011.51 1011.22 1011.09 1010.96 1011.24 1010.75 1010.69 1010.17 1009.74 1009.79 1009.23 1008.89 1008.79 1008.81 1008.49 1008.34 1008.23 1008.35 1008.41 1008.36 1008.53
1021.22 1021.01 1020.90 1020.88 1020.76 1020.57 1020.23 1019.97 1019.67 1019.38 1019.01 1018.63 1018.45 1018.31 1018.24 1018.21 1018.10 1017.96 1017.77 1017.33 1017.18 1016.84 1015.29 1012.90 1011.72 1010.54 1010.55 1010.60 1010.67 1010.98 1011.19 1011.09 1011.07 1011.32 1011.18 1011.02 1011.25 1011.36 1011.36 1010.99 1009.85 1009.46 1009.02 1008.77 1008.29 1008.23 1008.30 1008.17 1008.26 1008.38 1008.36 1008.33 1008.44 1008.59
1020.77 1020.72 1020.55 1020.44 1020.44 1020.20 1019.89 1019.61 1019.45 1019.14 1018.93 1018.60 1018.42 1018.36 1018.24 1018.10 1017.91 1017.65 1017.24 1017.12 1017.11 1016.85 1015.91 1013.61 1011.53 1010.50 1010.29 1010.38 1010.43 1010.62 1010.93 1011.31 1011.15 1010.86 1010.99 1011.11 1011.29 1011.31 1010.91 1010.37 1009.26 1009.04 1008.93 1008.76 1008.51 1008.51 1008.53 1008.47 1008.40 1008.30 1008.30 1008.46 1008.58 1008.75
1020.33 1020.22 1020.11 1020.05 1019.99 1019.80 1019.51 1019.13 1019.05 1018.86 1018.67 1018.50 1018.30 1018.26 1018.17 1018.06 1017.88 1017.56 1017.24 1017.29 1017.18 1016.94 1015.87 1013.91 1011.52 1010.47 1010.36 1010.19 1010.28 1010.64 1010.92 1010.87 1010.84 1010.75 1010.87 1010.85 1011.33 1011.37 1011.01 1010.14 1009.20 1009.15 1009.13 1009.15 1009.18 1008.93 1008.63 1008.40 1008.21 1008.22 1008.29 1008.39 1008.85 1008.98
1019.76 1019.66 1019.64 1019.61 1019.57 1019.36 1019.01 1018.81 1018.63 1018.45 1018.35 1018.16 1017.99 1017.90 1017.79 1017.69 1017.57 1017.06 1016.08 1016.27 1017.14 1016.82 1015.79 1013.94 1011.47 1010.71 1010.23 1009.84 1009.97 1010.40 1010.33 1010.68 1010.77 1010.49 1010.97 1010.73 1011.58 1011.62 1010.93 1010.07 1009.97 1009.74 1009.43 1009.26 1009.06 1008.99 1008.45 1008.23 1008.27 1008.19 1008.36 1008.45 1008.68 1008.86
1019.03 1018.98 1018.98 1019.00 1018.98 1018.91 1018.63 1018.49 1018.31 1018.19 1018.06 1017.83 1017.63 1017.47 1017.43 1017.23 1016.82 1015.96 1016.03 1016.33 1016.42 1016.54 1015.03 1013.52 1011.62 1010.16 1010.11 1009.91 1010.04 1010.32 1009.98 1010.15 1010.83 1010.12 1010.23 1010.49 1010.89 1010.82 1010.65 1010.86 1010.65 1010.53 1010.15 1009.70 1009.25 1008.70 1008.42 1008.29 1008.16 1008.18 1008.32 1008.36 1008.37 1008.71
1018.27 1018.28 1018.26 1018.40 1018.43 1018.41 1018.42 1018.35 1018.08 1017.95 1017.90 1017.58 1017.59 1017.44 1016.82 1016.35 1016.07 1015.93 1015.98 1016.10 1015.91 1015.15 1014.58 1012.87 1011.56 1010.31 1010.22 1009.91 1009.71 1009.76 1009.69 1009.35 1009.81 1009.54 1010.10 1010.11 1009.80 1010.75 1011.37 1011.61 1011.52 1011.24 1010.84 1010.31 1009.53 1008.76 1008.57 1008.29 1008.16 1008.07 1008.10 1008.04 1008.06 1008.31
1017.51 1017.58 1017.67 1017.83 1018.02 1018.12 1018.05 1018.01 1017.91 1017.85 1017.72 1017.72 1017.45 1016.97 1016.25 1015.99 1015.96 1015.58 1014.97 1014.63 1014.00 1013.39 1012.54 1011.54 1010.82 1009.83 1010.01 1009.54 1009.27 1009.51 1009.07 1009.07 1008.86 1008.67 1009.23 1009.39 1009.58 1010.84 1011.70 1011.91 1011.85 1011.59 1011.24 1010.62 1010.06 1009.48 1009.01 1008.62 1008.42 1008.24 1008.15 1008.18 1008.25 1008.50
1016.81 1016.90 1017.02 1017.22 1017.43 1017.59 1017.61 1017.73 1017.81 1017.89 1017.63 1017.61 1017.63 1017.15 1016.51 1015.83 1015.40 1015.10 1013.94 1013.10 1012.43 1011.52 1010.87 1010.26 1009.35 1009.67 1009.82 1009.83 1009.44 1009.73 1009.04 1009.13 1008.15 1008.64 1008.89 1009.01 1010.40 1011.45 1012.02 1012.20 1012.09 1011.81 1011.41 1010.76 1010.21 1009.57 1009.02 1008.56 1008.27 1008.12 1008.01 1007.93 1008.07 1008.16
1016.10 1016.26 1016.44 1016.68 1016.94 1017.09 1017.27 1017.46 1017.54 1017.61 1017.56 1017.45 1017.37 1016.70 1016.02 1015.52 1014.72 1014.21 1013.06 1012.30 1011.51 1010.77 1010.19 1009.96 1009.71 1009.74 1010.19 1009.99 1009.71 1009.70 1009.17 1008.75 1008.49 1008.59 1008.54 1009.46 1011.07 1011.86 1012.35 1012.47 1012.28 1011.99 1011.57 1011.07 1010.45 1009.88 1009.33 1008.76 1008.25 1007.96 1007.66 1007.61 1007.72 1008.15
1015.54 1015.72 1015.94 1016.23 1016.52 1016.74 1016.96 1017.16 1017.41 1017.64 1017.73 1017.30 1016.85 1016.15 1015.26 1014.39 1013.67 1012.69 1012.14 1011.61 1011.53 1010.78 1010.29 1010.00 1010.00 1009.93 1009.82 1009.92 1009.70 1009.54 1008.82 1008.71 1008.72 1008.62 1009.24 1010.53 1011.45 1012.17 1012.56 1012.67 1012.44 1012.16 1011.77 1011.30 1010.84 1010.34 1009.80 1009.32 1008.74 1008.19 1007.69 1007.53 1007.61 1007.70
1014.99 1015.25 1015.62 1016.00 1016.23 1016.50 1016.83 1017.07 1017.41 1017.65 1017.38 1017.11 1016.40 1015.21 1014.00 1013.16 1012.96 1012.50 1012.18 1011.82 1011.30 1011.04 1010.41 1010.42 1010.32 1010.18 1010.15 1009.85 1009.47 1009.11 1009.06 1008.49 1008.43 1009.21 1010.25 1011.02 1011.78 1012.27 1012.59 1012.62 1012.56 1012.36 1012.13 1011.71 1011.35 1010.80 1010.27 1009.86 1009.25 1008.47 1007.83 1007.30 1007.27 1007.50
1014.77 1015.23 1015.47 1015.61 1015.98 1016.39 1016.77 1017.13 1017.43 1017.44 1017.16 1016.60 1015.79 1014.33 1013.49 1013.15 1012.49 1012.21 1011.89 1011.70 1011.52 1011.24 1010.83 1010.43 1010.29 1009.97 1009.66 1009.36 1009.14 1008.56 1008.30 1008.63 1009.41 1009.85 1010.71 1011.38 1012.03 1012.32 1012.62 1012.68 1012.60 1012.49 1012.34 1012.03 1011.63 1011.00 1010.51 1010.01 1009.24 1008.51 1007.90 1007.30 1007.04 1007.14
1014.68 1014.87 1014.94 1015.38 1015.85 1016.36 1016.80 1017.16 1017.11 1016.93 1016.88 1015.84 1014.71 1014.08 1013.81 1013.34 1013.03 1012.69 1012.40 1012.06 1011.73 1011.46 1010.81 1010.45 1010.35 1010.27 1010.17 1009.60 1009.29 1009.37 1009.37 1009.64 1010.10 1010.58 1011.02 1011.64 1012.00 1012.28 1012.40 1012.53 1012.46 1012.34 1012.14 1011.79 1011.45 1011.08 1010.68 1010.06 1009.24 1008.61 1007.99 1007.28 1007.01 1006.80
1014.61 1014.67 1014.89 1015.35 1015.93 1016.47 1016.86 1017.01 1016.60 1016.35 1016.11 1015.47 1014.85 1014.10 1013.79 1013.65 1013.53 1013.15 1012.75 1012.40 1011.93 1011.25 1011.04 1010.81 1010.61 1010.38 1010.33 1009.99 1010.12 1010.49 1010.66 1010.79 1011.18 1011.37 1011.69 1011.95 1012.14 1012.36 1012.47 1012.43 1012.28 1012.14 1011.88 1011.58 1011.18 1010.70 1010.11 1009.72 1009.33 1008.71 1008.19 1007.62 1007.07 1006.70
1014.28 1014.69 1014.88 1015.50 1015.87 1016.32 1016.62 1016.77 1016.69 1016.10 1015.52 1015.01 1014.63 1014.30 1014.06 1013.63 1013.80 1013.74 1012.95 1012.64 1012.17 1011.65 1011.03 1010.94 1010.70 1010.32 1010.31 1010.53 1010.80 1011.05 1011.40 1011.62 1011.68 1011.73 1011.81 1011.88 1012.08 1012.17 1012.23 1012.23 1012.02 1011.85 1011.72 1011.42 1011.11 1010.69 1010.34 1010.00 1009.68 1009.18 1008.56 1007.87 1007.03 1006.38
1014.40 1014.64 1015.07 1015.62 1016.04 1016.32 1016.52 1016.58 1016.48 1015.97 1015.33 1014.82 1014.37 1014.00 1013.65 1013.18 1013.19 1012.85 1012.54 1012.65 1012.40 1011.39 1010.80 1011.03 1010.61 1010.43 1010.44 1010.78 1010.90 1011.00 1011.29 1011.36 1011.34 1011.44 1011.41 1011.36 1011.47 1011.65 1011.81 1012.04 1012.00 1011.88 1011.50 1011.17 1010.99 1010.60 1010.21 1009.85 1009.43 1009.25 1008.98 1008.68 1007.69 1006.44
1014.51 1015.01 1015.56 1016.00 1016.30 1016.51 1016.54 1016.11 1015.99 1015.73 1015.22 1014.78 1014.13 1013.86 1013.20 1013.01 1012.66 1012.37 1011.73 1011.50 1011.50 1010.93 1010.50 1010.44 1010.46 1010.72 1010.68 1010.84 1010.83 1010.94 1011.21 1011.29 1011.31 1011.30 1011.23 1011.20 1011.13 1011.47 1011.47 1011.55 1011.63 1011.48 1011.16 1010.75 1010.47 1010.15 1010.07 1009.59 1009.23 1009.09 1008.88 1008.50 1007.90 1007.10
1014.81 1015.10 1015.81 1016.15 1016.31 1016.51 1016.50 1016.13 1015.81 1015.40 1015.15 1014.26 1014.00 1013.51 1012.85 1012.24 1011.82 1011.55 1011.43 1011.29 1010.49 1009.81 1009.67 1009.61 1009.67 1009.92 1010.48 1010.47 1010.35 1010.62 1010.65 1010.87 1011.03 1011.21 1011.17 1011.16 1010.99 1010.80 1010.70 1010.78 1010.83 1010.61 1010.47 1010.24 1010.03 1009.70 1009.29 1009.04 1008.95 1008.95 1008.75 1008.26 1007.84 1007.20
1015.08 1015.47 1015.90 1016.01 1016.15 1016.31 1016.14 1015.81 1015.44 1014.92 1014.39 1013.77 1013.46 1012.94 1012.08 1011.51 1011.13 1011.31 1010.64 1009.96 1009.37 1008.92 1008.78 1008.79 1008.64 1008.90 1009.21 1009.49 1009.81 1009.95 1010.11 1010.27 1010.42 1010.43 1010.32 1010.16 1010.12 1010.16 1010.23 1010.13 1010.08 1010.03 1009.79 1009.49 1009.48 1009.18 1008.83 1008.68 1008.72 1008.63 1008.32 1007.88 1007.31 1006.78
1015.24 1015.65 1015.81 1015.86 1015.95 1015.80 1015.67 1015.24 1014.87 1014.46 1013.98 1013.48 1012.93 1012.02 1011.43 1011.09 1011.02 1010.64 1009.84 1009.28 1008.73 1008.77 1008.70 1008.63 1008.75 1008.79 1009.05 1009.16 1009.01 1008.87 1009.14 1009.58 1009.66 1009.59 1009.45 1009.55 1009.42 1009.20 1009.34 1009.18 1009.15 1009.15 1009.11 1008.96 1008.75 1008.51 1008.26 1008.11 1008.01 1007.81 1007.63 1007.20 1006.69 1006.30
1015.81 1015.94 1015.88 1015.66 1015.51 1015.47 1015.11 1014.50 1014.16 1013.93 1013.28 1012.97 1012.38 1011.49 1010.93 1011.08 1010.58 1010.09 1009.42 1008.91 1008.63 1008.46 1008.47 1008.53 1008.59 1008.65 1008.62 1008.49 1008.48 1008.60 1008.83 1008.92 1008.86 1008.68 1008.41 1008.91 1008.82 1008.84 1008.73 1008.56 1008.39 1008.19 1008.27 1008.23 1007.97 1007.85 1007.64 1007.51 1007.26 1006.97 1006.78 1006.61 1006.25 1005.76
1015.35 1015.33 1015.41 1014.91 1014.99 1014.91 1014.32 1013.79 1013.62 1013.23 1012.76 1012.14 1011.57 1011.06 1010.85 1010.54 1010.01 1009.34 1008.98 1008.85 1008.77 1008.67 1008.61 1008.58 1008.57 1008.57 1008.56 1008.66 1008.45 1008.22 1008.32 1008.63 1008.68 1008.32 1008.02 1008.14 1008.08 1008.11 1008.00 1007.96 1007.65 1007.06 1007.24 1007.29 1007.29 1007.06 1006.87 1006.73 1006.59 1006.46 1006.32 1005.98 1005.61 1005.48
1014.99 1014.65 1014.70 1014.53 1014.49 1014.33 1013.97 1013.53 1013.30 1012.88 1011.98 1011.30 1010.84 1010.55 1010.31 1009.75 1009.19 1008.95 1008.97 1008.86 1008.70 1008.69 1008.72 1008.64 1008.67 1008.58 1008.45 1008.41 1008.39 1008.30 1008.36 1008.43 1008.29 1007.90 1007.69 1007.67 1007.60 1007.61 1007.61 1007.47 1007.08 1006.78 1006.90 1006.84 1006.78 1006.64 1006.37 1006.20 1006.15 1006.07 1005.87 1005.62 1005.19 1004.83
1014.75 1014.35 1014.05 1013.92 1014.03 1013.91 1013.57 1013.12 1012.64 1011.79 1010.96 1010.67 1010.42 1009.90 1009.59 1009.10 1008.86 1008.67 1008.54 1008.54 1008.59 1008.55 1008.61 1008.64 1008.59 1008.50 1008.37 1008.08 1008.24 1008.07 1007.86 1007.79 1007.64 1007.33 1007.20 1007.06 1007.06 1007.01 1007.12 1007.00 1006.82 1006.72 1006.66 1006.47 1006.30 1006.25 1006.16 1006.12 1006.16 1005.99 1005.69 1005.37 1005.02 1004.55
1014.19 1013.66 1013.52 1013.14 1013.07 1012.78 1012.39 1011.72 1010.97 1010.56 1010.34 1010.23 1009.99 1009.68 1009.22 1008.82 1008.49 1008.27 1008.18 1008.15 1008.32 1008.22 1007.99 1007.77 1007.71 1007.88 1007.77 1007.64 1007.64 1007.65 1007.57 1007.36 1007.11 1006.84 1006.75 1006.61 1006.55 1006.45 1006.53 1006.40 1006.08 1005.78 1005.59 1005.65 1006.05 1006.11 1005.81 1006.01 1006.08 1005.92 1005.68 1005.43 1005.22 1004.71
1013.19 1013.12 1012.74 1012.27 1011.94 1011.43 1010.86 1010.58 1010.25 1010.09 1010.11 1009.92 1009.78 1009.51 1009.11 1008.50 1008.06 1008.00 1007.92 1007.88 1007.82 1007.65 1007.51 1007.42 1007.38 1007.48 1007.35 1007.31 1007.27 1007.22 1007.47 1007.47 1007.33 1007.20 1006.98 1006.85 1006.89 1006.87 1006.67 1006.29 1005.87 1005.51 1005.35 1005.24 1005.45 1005.60 1006.31 1006.29 1006.07 1005.73 1005.73 1005.38 1005.34 1004.63
1012.75 1012.58 1012.20 1011.66 1011.06 1010.44 1010.08 1009.95 1009.87 1009.84 1009.73 1009.46 1009.28 1009.16 1008.59 1008.21 1007.85 1007.97 1007.97 1007.97 1007.90 1007.77 1007.63 1007.43 1007.35 1007.55 1007.68 1007.53 1007.39 1007.24 1007.25 1007.59 1007.56 1007.53 1007.65 1007.36 1007.13 1007.09 1006.84 1006.40 1005.91 1005.55 1005.28 1005.09 1005.16 1005.40 1005.67 1005.94 1006.03 1005.93 1005.85 1005.72 1005.45 1005.29
1012.08 1011.75 1011.41 1010.98 1010.49 1009.97 1009.93 1009.75 1009.58 1009.53 1009.42 1009.36 1009.17 1009.23 1008.83 1008.57 1008.14 1008.09 1008.18 1008.06 1007.89 1007.74 1007.86 1007.69 1007.52 1007.43 1007.64 1007.65 1007.64 1007.75 1007.88 1007.63 1007.51 1007.45 1007.37 1007.23 1007.08 1007.07 1006.88 1006.53 1006.03 1005.71 1005.39 1005.35 1005.53 1005.64 1005.93 1005.99 1006.02 1006.00 1005.89 1005.81 1005.71 1005.51
1011.46 1011.30 1011.11 1010.86 1010.41 1010.00 1009.85 1009.81 1009.47 1009.41 1009.44 1009.36 1009.39 1009.39 1009.15 1008.85 1008.36 1008.29 1008.29 1008.27 1008.31 1008.23 1008.10 1007.84 1007.67 1007.60 1007.63 1007.69 1007.69 1007.61 1007.59 1007.33 1007.40 1007.44 1007.30 1007.28 1007.31 1007.17 1006.80 1006.32 1006.11 1005.98 1005.61 1005.43 1005.62 1005.73 1005.70 1005.74 1005.80 1005.75 1005.87 1005.83 1005.71 1005.67
Thickness
5564 5572 5581 5588 5596 5605 5615 5624 5633 5641 5651 5659 5666 5672 5679 5684 5689 5694 5705 5709 5716 5721 5737 5742 5748 5747 5748 5749 5748 5755 5756 5761 5761 5752 5750 5747 5750 5749 5753 5753 5756 5761 5759 5755 5747 5748 5749 5790 5795 5785 5794 5801 5806 5808
5542 5550 5559 5567 5575 5585 5595 5607 5617 5626 5637 5647 5655 5662 5669 5676 5680 5685 5694 5701 5705 5712 5730 5738 5747 5754 5755 5757 5749 5750 5750 5751 5757 5750 5744 5745 5748 5746 5743 5748 5757 5755 5763 5765 5766 5766 5778 5785 5787 5797 5799 5800 5800 5803
5521 5526 5534 5545 5553 5564 5575 5586 5598 5609 5622 5633 5643 5650 5657 5664 5670 5674 5682 5689 5697 5704 5723 5730 5745 5755 5756 5757 5761 5745 5749 5755 5752 5754 5750 5746 5743 5746 5748 5751 5753 5758 5761 5764 5761 5769 5776 5785 5791 5796 5800 5801 5803 5804
5506 5511 5515 5521 5530 5539 5553 5565 5577 5590 5603 5615 5627 5636 5642 5649 5657 5662 5670 5678 5685 5695 5703 5731 5741 5744 5756 5756 5756 5757 5755 5752 5753 5749 5748 5746 5746 5745 5747 5748 5751 5763 5758 5761 5764 5771 5775 5784 5790 5795 5795 5797 5799 5800
5493 5497 5501 5505 5511 5519 5530 5542 5555 5568 5581 5595 5606 5616 5625 5633 5642 5650 5657 5667 5674 5683 5696 5712 5729 5744 5747 5749 5749 5750 5749 5749 5748 5744 5743 5744 5744 5742 5739 5742 5751 5763 5765 5762 5764 5780 5780 5783 5790 5792 5791 5792 5796 5795
5481 5484 5488 5492 5496 5503 5512 5522 5533 5546 5560 5573 5586 5596 5607 5617 5627 5637 5653 5656 5662 5669 5679 5696 5723 5731 5738 5740 5741 5741 5742 5740 5743 5744 5742 5741 5742 5745 5742 5741 5761 5766 5770 5775 5774 5780 5781 5784 5788 5792 5790 5791 5792 5791
5469 5473 5477 5480 5483 5490 5498 5507 5515 5527 5539 5552 5565 5576 5587 5598 5609 5623 5638 5643 5647 5653 5667 5684 5706 5722 5728 5733 5733 5731 5733 5735 5739 5739 5737 5741 5738 5740 5739 5739 5759 5764 5767 5770 5772 5775 5774 5780 5782 5789 5789 5790 5785 5788
5460 5463 5467 5470 5473 5479 5488 5495 5502 5511 5521 5533 5546 5557 5570 5581 5593 5609 5623 5631 5632 5640 5653 5667 5692 5708 5719 5721 5722 5724 5724 5724 5724 5733 5728 5734 5727 5730 5733 5747 5751 5758 5763 5767 5772 5775 5779 5786 5785 5786 5787 5786 5782 5781
5452 5456 5460 5463 5466 5470 5477 5483 5490 5498 5506 5516 5527 5540 5552 5566 5582 5598 5604 5612 5619 5627 5644 5657 5678 5698 5707 5707 5711 5712 5718 5711 5712 5723 5728 5728 5726 5728 5742 5736 5742 5746 5752 5758 5767 5775 5776 5775 5779 5781 5781 5781 5781 5778
5446 5450 5454 5457 5460 5463 5466 5471 5479 5486 5492 5501 5510 5524 5541 5553 5566 5577 5585 5595 5605 5616 5624 5645 5669 5682 5692 5696 5700 5705 5705 5710 5700 5717 5714 5719 5732 5726 5725 5728 5731 5737 5744 5752 5758 5766 5769 5769 5773 5778 5777 5782 5783 5781
5440 5444 5448 5450 5452 5455 5458 5462 5468 5474 5481 5488 5498 5511 5525 5536 5549 5560 5575 5588 5602 5613 5623 5641 5663 5677 5679 5684 5691 5692 5695 5697 5695 5711 5711 5713 5726 5720 5717 5720 5725 5731 5737 5744 5751 5757 5763 5768 5769 5771 5774 5777 5778 5777
5435 5439 5442 5446 5448 5450 5453 5454 5457 5462 5470 5476 5482 5489 5503 5522 5537 5549 5567 5582 5595 5613 5621 5636 5664 5667 5666 5669 5675 5672 5680 5679 5684 5698 5700 5700 5708 5704 5706 5709 5715 5722 5729 5737 5743 5749 5758 5763 5768 5770 5772 5774 5775 5776
5431 5434 5437 5440 5442 5444 5446 5446 5448 5452 5458 5464 5470 5482 5494 5507 5522 5536 5558 5572 5589 5601 5615 5625 5643 5649 5645 5651 5651 5654 5656 5662 5680 5677 5689 5691 5689 5692 5695 5698 5704 5711 5719 5727 5734 5741 5747 5755 5763 5767 5769 5773 5774 5770
5427 5429 5432 5434 5436 5438 5438 5439 5440 5442 5446 5455 5465 5474 5490 5507 5522 5539 5558 5571 5576 5593 5603 5615 5627 5628 5633 5632 5636 5634 5650 5655 5653 5661 5670 5670 5673 5680 5683 5686 5693 5698 5705 5712 5721 5727 5734 5740 5747 5756 5763 5767 5768 5767
5425 5426 5428 5429 5431 5431 5431 5432 5432 5433 5440 5448 5459 5472 5496 5510 5518 5531 5544 5557 5570 5578 5591 5598 5607 5613 5612 5617 5623 5633 5629 5640 5643 5642 5648 5658 5658 5668 5673 5676 5681 5687 5692 5698 5705 5713 5720 5726 5733 5743 5753 5760 5764 5763
5421 5422 5424 5426 5426 5425 5425 5425 5425 5428 5433 5443 5454 5473 5491 5499 5513 5524 5535 5545 5557 5565 5577 5589 5593 5597 5604 5611 5611 5624 5634 5629 5629 5636 5641 5645 5646 5650 5659 5664 5668 5675 5679 5684 5690 5698 5705 5713 5723 5733 5741 5750 5755 5756
5418 5422 5424 5424 5423 5421 5420 5420 5423 5428 5431 5444 5461 5471 5477 5486 5496 5507 5518 5533 5543 5557 5565 5573 5581 5586 5588 5596 5603 5603 5611 5619 5619 5625 5630 5631 5635 5638 5644 5652 5656 5661 5668 5675 5679 5684 5690 5700 5711 5721 5728 5738 5745 5749
5417 5420 5421 5421 5419 5417 5416 5417 5425 5431 5433 5443 5452 5465 5471 5476 5481 5495 5506 5519 5531 5547 5552 5561 5569 5576 5580 5587 5589 5588 5592 5599 5602 5607 5613 5615 5620 5625 5629 5636 5644 5648 5655 5662 5669 5675 5683 5688 5693 5704 5714 5723 5732 5737
5417 5417 5418 5417 5417 5416 5416 5417 5420 5428 5438 5446 5450 5458 5464 5473 5474 5479 5494 5503 5516 5529 5541 5547 5555 5566 5570 5573 5577 5579 5580 5583 5587 5592 5597 5602 5606 5613 5619 5624 5631 5638 5642 5647 5653 5660 5666 5672 5678 5686 5696 5708 5719 5729
5414 5416 5415 5414 5413 5415 5416 5417 5419 5428 5435 5445 5450 5457 5464 5476 5478 5481 5493 5494 5502 5524 5534 5535 5547 5556 5559 5563 5568 5573 5577 5581 5585 5589 5595 5598 5601 5605 5610 5613 5620 5625 5632 5637 5641 5643 5655 5661 5669 5674 5680 5686 5699 5714
5413 5412 5411 5411 5410 5411 5413 5420 5424 5427 5435 5442 5452 5455 5467 5468 5479 5484 5497 5503 5508 5518 5531 5534 5537 5539 5547 5552 5557 5562 5566 5570 5575 5580 5585 5591 5597 5596 5601 5606 5611 5616 5623 5630 5635 5641 5642 5651 5658 5664 5668 5674 5685 5696
5411 5412 5409 5409 5411 5411 5412 5418 5424 5429 5434 5446 5448 5455 5467 5478 5486 5490 5494 5500 5513 5525 5531 5534 5536 5538 5537 5544 5551 5554 5563 5565 5569 5569 5567 5574 5584 5591 5596 5599 5603 5610 5616 5622 5627 5632 5639 5645 5649 5653 5658 5664 5670 5681
5409 5409 5408 5410 5412 5409 5415 5420 5427 5434 5441 5450 5452 5459 5473 5484 5489 5484 5500 5508 5518 5524 5528 5533 5538 5541 5545 5549 5550 5554 5555 5557 5562 5566 5572 5577 5579 5580 5583 5589 5594 5600 5607 5614 5619 5624 5630 5632 5639 5643 5649 5657 5665 5673
5407 5406 5408 5410 5410 5414 5419 5424 5430 5435 5442 5448 5456 5470 5478 5482 5481 5489 5503 5510 5520 5521 5526 5529 5533 5537 5539 5542 5549 5555 5557 5556 5560 5564 5568 5570 5574 5579 5580 5584 5589 5594 5600 5606 5610 5617 5623 5626 5628 5637 5642 5649 5657 5663
5402 5404 5405 5405 5416 5417 5423 5433 5436 5437 5449 5447 5455 5472 5481 5474 5489 5494 5502 5512 5516 5521 5524 5527 5530 5533 5538 5544 5546 5549 5551 5553 5557 5561 5565 5563 5567 5569 5572 5577 5582 5587 5590 5594 5600 5606 5612 5618 5622 5627 5634 5639 5645 5653
5404 5411 5409 5421 5420 5422 5432 5437 5438 5443 5450 5457 5463 5473 5472 5478 5489 5497 5503 5507 5510 5515 5519 5522 5526 5528 5531 5532 5538 5544 5546 5545 5547 5551 5556 5559 5562 5564 5567 5569 5574 5583 5585 5588 5590 5595 5601 5607 5613 5616 5620 5626 5630 5636
5412 5422 5418 5423 5424 5428 5431 5436 5437 5440 5455 5465 5474 5475 5477 5486 5492 5498 5496 5498 5505 5508 5511 5516 5518 5522 5525 5527 5529 5533 5536 5537 5540 5546 5550 5552 5555 5558 5560 5562 5565 5571 5573 5577 5581 5584 5589 5595 5600 5605 5609 5614 5621 5627
5417 5422 5427 5429 5424 5426 5425 5423 5432 5451 5467 5471 5473 5480 5483 5487 5491 5494 5496 5500 5501 5505 5506 5509 5512 5515 5518 5523 5523 5526 5531 5534 5537 5541 5544 5547 5549 5551 5552 5555 5558 5559 5563 5567 5570 5574 5578 5581 5584 5589 5594 5600 5607 5614
5423 5431 5434 5438 5437 5441 5444 5454 5464 5468 5470 5471 5477 5479 5485 5488 5492 5496 5499 5501 5501 5504 5509 5514 5515 5514 5517 5520 5521 5523 5525 5529 5532 5534 5536 5539 5540 5543 5544 5547 5551 5556 5559 5560 5556 5559 5565 5568 5571 5576 5579 5583 5589 5598
5437 5436 5442 5447 5450 5456 5465 5465 5470 5471 5467 5473 5476 5480 5485 5490 5495 5497 5499 5501 5503 5506 5509 5510 5512 5512 5515 5517 5518 5520 5519 5520 5522 5524 5528 5529 5530 5531 5534 5538 5543 5548 5550 5552 5554 5554 5545 5551 5557 5563 5567 5572 5574 5584
5441 5443 5448 5454 5461 5468 5470 5471 5471 5472 5475 5480 5482 5484 5490 5493 5496 5495 5496 5497 5499 5501 5503 5505 5506 5505 5504 5507 5509 5512 5512 5509 5510 5512 5515 5518 5521 5523 5526 5531 5535 5539 5542 5545 5547 5547 5546 5545 5547 5550 5554 5558 5563 5568
5449 5453 5459 5462 5469 5472 5469 5472 5475 5476 5478 5478 5482 5479 5484 5487 5490 5491 5491 5494 5497 5500 5494 5497 5500 5501 5499 5500 5500 5499 5494 5500 5503 5506 5509 5512 5515 5517 5520 5523 5527 5530 5534 5535 5534 5535 5534 5535 5537 5539 5544 5547 5552 5555
5455 5457 5459 5462 5469 5474 5474 5473 5479 5481 5479 5480 5479 5478 5481 5483 5491 5490 5490 5491 5491 5492 5494 5496 5498 5498 5497 5496 5496 5495 5494 5498 5497 5495 5499 5501 5503 5506 5512 5518 5520 5520 5525 5529 5527 5529 5531 5531 5531 5534 5535 5538 5541 5542